When you browse on this site, cookies collect data to enhance your experience and personalize the content and advertising you see.
Visit our Privacy Policy to learn more. By continuing to use the site, you agree to this use of cookies and data.
  • In Schweiz
  • Länderverzeichnis
  • Für 7 Tage
  • Wassertemperatur
  • Wetterkarte
  • Widgets
  • user-avatar
    Anmelden

    Stündliche Wetter Sergeevo

    Heute, 20 August, Dienstag

    Zeit Temperatur Niederschläge Wind Luftdruck Luftfeuchtigkeit
    00:00 +17°C° 0 mm 3 m/S 746 mmHg 86%
    01:00 +17°C° 0 mm 3 m/S 746 mmHg 86%
    02:00 +17°C° 0 mm 3 m/S 747 mmHg 85%
    03:00 +16°C° 0 mm 3 m/S 747 mmHg 84%
    04:00 +16°C° 0 mm 3 m/S 747 mmHg 83%
    05:00 +16°C° 0 mm 3 m/S 747 mmHg 82%
    06:00 +17°C° 0 mm 3 m/S 747 mmHg 80%
    07:00 +19°C° 0 mm 3 m/S 747 mmHg 78%
    08:00 +20°C° 0 mm 3 m/S 748 mmHg 76%
    09:00 +21°C° 0 mm 3 m/S 748 mmHg 75%
    10:00 +24°C° 0 mm 3 m/S 748 mmHg 73%
    11:00 +26°C° 0 mm 3 m/S 748 mmHg 72%
    12:00 +26°C° 0.4 mm 3 m/S 748 mmHg 71%
    13:00 +27°C° 0.4 mm 3 m/S 748 mmHg 70%
    14:00 +27°C° 0.4 mm 4 m/S 748 mmHg 69%
    15:00 +27°C° 0.7 mm 3 m/S 748 mmHg 73%
    16:00 +26°C° 0.7 mm 2 m/S 748 mmHg 77%
    17:00 +26°C° 0.7 mm 2 m/S 748 mmHg 81%
    18:00 +24°C° 0.1 mm 2 m/S 748 mmHg 83%
    19:00 +23°C° 0.1 mm 2 m/S 748 mmHg 86%
    20:00 +22°C° 0.1 mm 1 m/S 748 mmHg 88%
    21:00 +21°C° 0.2 mm 1 m/S 748 mmHg 89%
    22:00 +21°C° 0.2 mm 1 m/S 748 mmHg 90%
    23:00 +21°C° 0.2 mm 1 m/S 749 mmHg 91%

    Morgen, 21 August, Mittwoch

    Zeit Temperatur Niederschläge Wind Luftdruck Luftfeuchtigkeit
    00:00 +20°C° 0.1 mm 1 m/S 749 mmHg 91%
    01:00 +20°C° 0.1 mm 1 m/S 749 mmHg 91%
    02:00 +20°C° 0.1 mm 1 m/S 749 mmHg 92%
    03:00 +19°C° 0.1 mm 1 m/S 749 mmHg 92%
    04:00 +19°C° 0.1 mm 1 m/S 749 mmHg 92%
    05:00 +19°C° 0.1 mm 1 m/S 748 mmHg 92%
    06:00 +19°C° 0 mm 2 m/S 749 mmHg 89%
    07:00 +20°C° 0 mm 2 m/S 749 mmHg 86%
    08:00 +21°C° 0 mm 2 m/S 749 mmHg 83%
    09:00 +22°C° 0 mm 3 m/S 749 mmHg 79%
    10:00 +25°C° 0 mm 3 m/S 749 mmHg 75%
    11:00 +26°C° 0 mm 3 m/S 749 mmHg 70%
    12:00 +27°C° 0 mm 3 m/S 748 mmHg 68%
    13:00 +28°C° 0 mm 3 m/S 748 mmHg 65%
    14:00 +28°C° 0 mm 4 m/S 748 mmHg 62%
    15:00 +28°C° 0 mm 3 m/S 748 mmHg 66%
    16:00 +27°C° 0 mm 3 m/S 747 mmHg 70%
    17:00 +27°C° 0 mm 3 m/S 747 mmHg 74%
    18:00 +25°C° 0 mm 3 m/S 747 mmHg 77%
    19:00 +24°C° 0 mm 3 m/S 747 mmHg 81%
    20:00 +21°C° 0 mm 2 m/S 747 mmHg 85%
    21:00 +21°C° 0 mm 3 m/S 747 mmHg 85%
    22:00 +20°C° 0 mm 3 m/S 747 mmHg 86%
    23:00 +20°C° 0 mm 3 m/S 747 mmHg 86%

    übermorgen, 22 August, Donnerstag

    Zeit Temperatur Niederschläge Wind Luftdruck Luftfeuchtigkeit
    00:00 +19°C° 0 mm 3 m/S 747 mmHg 86%
    01:00 +19°C° 0 mm 3 m/S 747 mmHg 86%
    02:00 +19°C° 0 mm 3 m/S 747 mmHg 86%
    03:00 +18°C° 0 mm 3 m/S 747 mmHg 89%
    04:00 +18°C° 0 mm 2 m/S 747 mmHg 92%
    05:00 +17°C° 0 mm 2 m/S 747 mmHg 94%
    06:00 +17°C° 0.2 mm 3 m/S 747 mmHg 93%
    07:00 +17°C° 0.2 mm 4 m/S 748 mmHg 93%
    08:00 +17°C° 0.2 mm 5 m/S 748 mmHg 92%
    09:00 +17°C° 0.2 mm 5 m/S 748 mmHg 91%
    10:00 +16°C° 0.2 mm 5 m/S 748 mmHg 89%
    11:00 +16°C° 0.2 mm 5 m/S 749 mmHg 88%
    12:00 +19°C° 0 mm 5 m/S 749 mmHg 83%
    13:00 +20°C° 0 mm 4 m/S 749 mmHg 78%
    14:00 +21°C° 0 mm 4 m/S 749 mmHg 73%
    15:00 +21°C° 0 mm 4 m/S 749 mmHg 73%
    16:00 +21°C° 0 mm 3 m/S 749 mmHg 74%
    17:00 +21°C° 0 mm 3 m/S 749 mmHg 74%
    18:00 +19°C° 0 mm 3 m/S 750 mmHg 78%
    19:00 +18°C° 0 mm 3 m/S 750 mmHg 83%
    20:00 +16°C° 0 mm 2 m/S 750 mmHg 87%
    21:00 +16°C° 0 mm 3 m/S 750 mmHg 87%
    22:00 +14°C° 0 mm 3 m/S 750 mmHg 87%
    23:00 +13°C° 0 mm 3 m/S 751 mmHg 87%

    23 August, Freitag

    Zeit Temperatur Niederschläge Wind Luftdruck Luftfeuchtigkeit
    00:00 +14°C° 0 mm 2 m/S 751 mmHg 88%
    01:00 +13°C° 0 mm 2 m/S 751 mmHg 89%
    02:00 +13°C° 0 mm 2 m/S 751 mmHg 90%
    03:00 +12°C° 0 mm 2 m/S 751 mmHg 91%
    04:00 +12°C° 0 mm 2 m/S 751 mmHg 92%
    05:00 +12°C° 0 mm 2 m/S 751 mmHg 92%
    06:00 +13°C° 0 mm 2 m/S 751 mmHg 87%
    07:00 +15°C° 0 mm 2 m/S 751 mmHg 82%
    08:00 +17°C° 0 mm 2 m/S 751 mmHg 78%
    09:00 +18°C° 0 mm 2 m/S 752 mmHg 72%
    10:00 +19°C° 0 mm 2 m/S 752 mmHg 67%
    11:00 +21°C° 0 mm 2 m/S 752 mmHg 62%
    12:00 +21°C° 0 mm 2 m/S 752 mmHg 60%
    13:00 +21°C° 0 mm 2 m/S 752 mmHg 58%
    14:00 +23°C° 0 mm 2 m/S 751 mmHg 56%
    15:00 +21°C° 0 mm 2 m/S 751 mmHg 61%
    16:00 +21°C° 0 mm 2 m/S 751 mmHg 65%
    17:00 +21°C° 0 mm 2 m/S 751 mmHg 70%
    18:00 +19°C° 0 mm 2 m/S 751 mmHg 75%
    19:00 +17°C° 0 mm 2 m/S 751 mmHg 80%
    20:00 +15°C° 0 mm 2 m/S 751 mmHg 85%
    21:00 +14°C° 0 mm 2 m/S 751 mmHg 86%
    22:00 +14°C° 0 mm 2 m/S 752 mmHg 86%
    23:00 +13°C° 0 mm 2 m/S 752 mmHg 87%

    24 August, Samstag

    Zeit Temperatur Niederschläge Wind Luftdruck Luftfeuchtigkeit
    00:00 +13°C° 0 mm 1 m/S 752 mmHg 88%
    01:00 +13°C° 0 mm 1 m/S 752 mmHg 89%
    02:00 +12°C° 0 mm 1 m/S 752 mmHg 91%
    03:00 +12°C° 0 mm 1 m/S 752 mmHg 91%
    04:00 +12°C° 0 mm 1 m/S 752 mmHg 91%
    05:00 +12°C° 0 mm 1 m/S 752 mmHg 92%
    06:00 +14°C° 0 mm 1 m/S 752 mmHg 87%
    07:00 +15°C° 0 mm 1 m/S 752 mmHg 82%
    08:00 +18°C° 0 mm 1 m/S 753 mmHg 77%
    09:00 +19°C° 0 mm 1 m/S 753 mmHg 72%
    10:00 +20°C° 0 mm 2 m/S 753 mmHg 68%
    11:00 +21°C° 0 mm 2 m/S 753 mmHg 63%
    12:00 +21°C° 0 mm 2 m/S 752 mmHg 61%
    13:00 +23°C° 0 mm 2 m/S 752 mmHg 59%
    14:00 +23°C° 0 mm 2 m/S 752 mmHg 57%
    15:00 +23°C° 0 mm 2 m/S 752 mmHg 61%
    16:00 +21°C° 0 mm 2 m/S 751 mmHg 66%
    17:00 +21°C° 0 mm 2 m/S 751 mmHg 70%
    18:00 +20°C° 0 mm 1 m/S 751 mmHg 75%
    19:00 +18°C° 0 mm 1 m/S 751 mmHg 80%
    20:00 +16°C° 0 mm 1 m/S 751 mmHg 85%
    21:00 +15°C° 0 mm 1 m/S 751 mmHg 87%
    22:00 +15°C° 0 mm 1 m/S 751 mmHg 88%
    23:00 +14°C° 0 mm 1 m/S 751 mmHg 90%

    25 August, Sonntag

    Zeit Temperatur Niederschläge Wind Luftdruck Luftfeuchtigkeit
    00:00 +14°C° 0 mm 1 m/S 751 mmHg 90%
    01:00 +14°C° 0 mm 2 m/S 751 mmHg 91%
    02:00 +13°C° 0 mm 2 m/S 751 mmHg 92%
    03:00 +13°C° 0 mm 2 m/S 750 mmHg 92%
    04:00 +13°C° 0 mm 2 m/S 750 mmHg 92%
    05:00 +13°C° 0 mm 2 m/S 750 mmHg 92%
    06:00 +14°C° 0 mm 2 m/S 750 mmHg 87%
    07:00 +16°C° 0 mm 2 m/S 750 mmHg 83%
    08:00 +17°C° 0 mm 2 m/S 750 mmHg 78%
    09:00 +19°C° 0 mm 2 m/S 750 mmHg 74%
    10:00 +20°C° 0 mm 2 m/S 750 mmHg 69%
    11:00 +22°C° 0 mm 3 m/S 750 mmHg 65%
    12:00 +22°C° 0 mm 3 m/S 749 mmHg 64%
    13:00 +24°C° 0 mm 3 m/S 749 mmHg 62%
    14:00 +24°C° 0 mm 3 m/S 749 mmHg 60%
    15:00 +24°C° 0 mm 3 m/S 749 mmHg 65%
    16:00 +23°C° 0 mm 2 m/S 749 mmHg 69%
    17:00 +23°C° 0 mm 2 m/S 748 mmHg 73%
    18:00 +20°C° 0 mm 2 m/S 748 mmHg 78%
    19:00 +18°C° 0 mm 2 m/S 748 mmHg 83%
    20:00 +16°C° 0 mm 1 m/S 748 mmHg 87%
    21:00 +16°C° 0 mm 1 m/S 748 mmHg 88%
    22:00 +15°C° 0 mm 1 m/S 749 mmHg 89%
    23:00 +15°C° 0 mm 1 m/S 749 mmHg 89%
    Mehr zeigen